Wind_Speed
45 48 52 54 56 58 59 60 62 62 62 61 61 60 59 58 56 54 53 53 53 52 51 50 50 50 48 44 41 40 39 39 39 38 38 37 36 35 34 32 29 25
46 49 52 54 55 56 57 59 61 63 63 63 62 61 59 57 56 55 54 54 52 51 51 51 51 50 47 44 42 41 41 40 40 40 39 38 37 36 36 35 34 33
47 50 53 55 56 55 55 57 59 60 61 61 61 60 58 57 56 55 54 53 52 52 53 53 51 48 45 44 42 41 41 41 42 42 41 40 38 37 36 36 37 38
48 51 53 54 54 54 53 55 57 57 57 58 60 60 59 58 58 57 56 55 55 56 54 51 48 46 45 44 43 42 42 42 42 42 42 41 40 40 40 40 40 40
50 53 54 52 52 52 52 54 55 56 57 58 60 62 61 60 59 58 58 56 54 53 51 49 47 47 46 46 45 45 44 44 43 43 43 43 43 43 43 43 42 41
53 54 54 53 53 52 52 54 55 56 57 58 59 60 60 59 59 59 58 55 52 50 49 49 49 49 49 48 47 47 46 46 46 45 45 45 45 44 44 43 42 41
53 53 53 54 55 54 53 55 56 57 57 57 58 57 57 57 57 58 58 57 56 54 52 52 52 52 51 50 49 49 49 49 48 48 48 47 46 45 44 44 43 42
53 53 53 53 55 56 55 55 55 56 57 58 58 57 58 59 59 59 59 58 58 57 55 54 53 53 51 50 50 50 50 50 50 49 48 47 46 45 45 44 44 43
55 55 55 55 56 57 57 57 57 57 58 58 57 55 55 56 57 57 56 54 53 53 52 49 49 49 48 49 50 51 52 51 51 50 49 47 46 45 45 44 45 45
57 57 57 58 58 58 58 59 59 59 59 59 58 56 54 54 55 56 55 54 53 52 51 50 48 48 48 50 52 54 55 55 54 53 52 50 49 48 47 48 49 49
58 58 60 60 61 60 60 60 60 60 60 60 60 60 60 61 61 62 62 61 60 58 57 55 54 54 55 55 57 58 58 58 57 56 55 54 53 52 53 54 54 53
61 61 62 63 63 62 62 62 61 60 60 60 60 62 63 64 64 65 65 64 63 61 59 58 57 58 59 59 60 61 61 61 60 59 57 56 56 56 57 56 54 53
63 63 63 63 63 62 62 62 62 61 61 61 61 63 64 65 65 66 66 65 63 61 60 59 59 60 61 62 64 65 64 65 64 62 59 56 57 57 56 53 51 49
65 65 64 64 63 62 62 61 61 61 61 61 62 63 64 65 66 66 67 66 65 64 63 63 63 64 66 67 68 69 68 66 65 62 56 53 53 53 50 48 47 46
65 65 65 65 64 64 63 61 60 60 60 61 61 62 63 63 63 64 66 67 66 65 64 64 64 66 67 67 67 68 68 65 63 60 55 50 47 47 46 45 45 44
66 66 66 65 65 65 64 61 59 58 59 59 60 61 62 63 63 64 65 65 64 63 62 61 61 62 63 63 63 65 65 64 62 60 57 52 48 44 43 43 43 43
67 67 67 66 66 65 63 61 59 57 57 57 56 56 59 59 60 62 63 63 62 61 60 59 59 60 60 59 60 61 61 61 60 60 60 58 55 49 44 42 43 45
69 68 68 67 66 66 64 62 60 58 58 56 53 53 55 56 55 56 58 60 60 61 62 61 60 59 58 57 57 58 58 59 59 59 59 61 61 58 52 46 45 46
70 70 69 68 67 67 66 64 62 61 62 61 59 59 60 60 60 59 59 60 60 60 61 62 60 58 56 56 56 56 57 57 58 59 60 61 63 64 62 57 51 49
71 71 70 69 68 67 67 66 65 64 64 64 64 66 67 66 66 66 66 65 64 63 63 62 62 60 58 57 56 56 57 57 58 59 60 61 63 64 66 65 62 57
72 72 71 71 70 69 68 67 66 66 66 65 65 67 69 69 69 70 70 69 68 68 67 66 64 63 61 59 58 58 58 59 59 60 61 62 63 64 65 67 68 66
70 71 71 71 71 70 69 69 68 68 68 66 65 66 68 70 71 72 72 72 71 70 69 68 67 66 64 61 60 60 60 60 61 62 63 64 64 65 66 67 68 70
67 68 69 70 71 71 70 70 71 70 68 66 64 66 68 70 72 74 74 74 73 72 70 70 70 68 66 64 64 63 63 63 63 64 64 66 67 68 69 70 71 72
63 64 66 67 68 69 70 70 71 71 69 67 66 67 68 70 74 77 76 73 72 72 72 72 72 71 69 68 67 67 66 66 66 67 67 68 69 70 71 72 73 73
61 61 63 64 65 66 67 68 69 69 69 68 68 69 70 72 76 79 78 73 72 74 74 73 73 73 73 72 71 70 69 69 70 70 70 71 72 72 73 73 73 74
60 61 62 62 63 64 65 66 67 68 68 67 68 69 71 73 75 77 77 75 74 75 76 74 75 76 75 74 74 72 72 72 72 72 72 73 73 74 74 74 74 74
Wind_Direction
272 272 271 270 270 270 270 270 270 271 271 272 273 273 274 275 275 276 276 277 278 279 280 282 285 287 288 288 287 286 285 283 283 283 282 280 278 274 272 272 271 273
268 269 269 270 271 270 271 270 270 270 270 271 271 271 272 272 272 273 274 275 276 277 279 283 285 286 285 285 285 284 283 281 280 280 279 277 275 272 269 268 266 269
267 267 267 268 269 270 269 269 269 271 272 272 272 271 271 271 271 272 272 273 274 276 280 283 283 282 281 282 283 283 281 280 278 277 276 275 272 269 267 266 267 269
267 264 264 266 268 269 268 268 270 272 274 274 275 274 273 272 272 272 272 273 274 277 279 280 279 278 279 281 282 281 280 278 276 275 274 271 269 267 266 266 268 271
266 264 264 265 266 268 268 268 271 273 274 277 278 279 279 279 278 278 277 277 277 278 279 279 279 279 279 280 280 279 277 276 275 274 273 271 269 268 267 268 271 273
266 266 266 266 265 266 268 269 271 274 276 278 279 280 282 283 283 283 283 284 284 283 282 281 282 282 281 280 279 278 277 276 275 275 274 273 272 271 270 270 272 275
263 264 265 265 265 266 267 270 273 274 275 276 277 278 279 281 282 283 284 285 286 285 284 283 282 282 281 280 279 278 278 277 277 277 277 277 276 275 275 274 276 278
260 261 263 264 265 265 266 268 270 272 273 275 276 276 277 278 280 281 283 285 287 288 288 288 287 285 284 282 281 280 280 280 280 281 281 281 281 280 280 281 283 284
259 260 261 262 264 265 267 268 269 271 272 273 274 274 275 277 278 279 281 282 285 287 288 289 288 288 287 286 286 286 286 286 286 287 288 288 287 287 288 288 288 289
259 260 262 263 264 266 268 270 272 272 272 272 271 270 269 270 272 273 274 275 277 278 280 280 280 279 280 281 283 285 286 287 288 290 291 292 293 294 294 292 291 291
259 261 262 264 265 267 269 271 273 273 273 273 272 270 268 268 269 270 270 271 272 273 274 274 273 273 274 277 279 280 282 284 286 289 291 293 295 294 293 292 291 290
261 262 263 265 266 268 270 272 273 273 273 272 271 269 269 269 270 271 271 271 271 272 272 272 271 272 274 275 276 277 279 281 284 286 289 291 291 290 290 289 288 287
264 264 265 266 267 269 271 272 273 274 274 273 271 269 268 269 269 269 269 270 270 270 270 271 271 272 272 272 273 275 277 280 282 284 286 287 287 286 286 286 286 284
267 267 267 268 269 270 271 272 273 273 273 272 271 269 268 268 267 267 267 267 267 267 268 269 271 272 272 273 274 276 278 279 280 281 282 283 282 282 283 285 285 282
269 269 270 270 270 270 270 271 271 271 271 270 268 267 267 267 267 267 266 266 267 268 269 271 272 272 274 276 277 278 279 280 281 281 281 280 278 278 280 283 282 280
268 269 269 270 269 269 269 269 267 267 267 267 266 264 264 265 265 265 266 267 268 269 271 272 272 273 275 278 279 280 282 283 285 285 285 283 279 277 278 280 278 277
266 266 267 267 267 267 266 265 264 263 262 263 264 263 263 264 266 267 268 269 270 271 271 272 273 275 277 278 279 281 283 285 287 288 289 289 286 283 280 278 277 277
263 263 263 264 264 264 263 262 261 259 258 258 260 260 261 262 264 267 269 270 272 273 273 273 273 275 276 277 278 280 282 284 286 288 289 290 290 289 286 282 279 279
262 261 261 261 261 261 261 260 259 257 256 256 257 259 260 260 260 262 264 266 268 270 272 273 273 273 274 275 276 278 280 282 284 285 286 287 288 289 290 288 284 281
261 260 259 259 259 259 259 259 258 257 256 256 257 259 260 260 260 261 262 263 264 265 267 269 271 273 274 275 275 276 277 278 280 282 283 284 285 287 288 289 289 287
260 259 259 258 258 257 257 257 257 256 256 256 256 258 260 261 262 262 262 263 264 265 265 267 268 270 272 273 274 275 276 277 278 279 280 281 281 282 284 286 288 289
259 259 259 258 257 257 256 256 256 255 255 256 256 258 259 261 262 263 263 263 264 264 266 267 268 269 270 270 271 272 273 275 276 277 277 277 278 278 279 280 282 285
257 257 258 258 258 257 256 255 254 254 254 255 256 256 258 259 260 260 261 262 264 266 266 267 268 269 269 269 269 269 270 271 272 272 273 273 273 274 275 276 277 278
255 255 255 256 256 256 256 255 254 253 253 252 253 254 256 258 258 258 258 260 263 265 266 266 268 268 268 268 268 268 268 268 269 270 270 270 271 272 273 273 274 275
256 255 254 254 254 254 254 255 255 254 253 251 251 251 253 255 258 259 260 260 260 261 262 264 265 266 267 267 267 267 267 268 268 269 269 270 271 272 273 273 274 274
257 256 255 254 254 253 254 254 254 254 254 252 251 251 251 253 256 259 261 261 260 260 262 262 263 264 265 266 267 267 267 268 268 269 270 271 272 273 273 274 274 274
Height
10585 10585 10583 10582 10582 10582 10581 10581 10581 10581 10583 10586 10588 10590 10592 10594 10595 10596 10597 10597 10598 10599 10600 10600 10600 10600 10600 10599 10599 10599 10599 10599 10599 10598 10598 10598 10598 10597 10597 10597 10597 10597
10580 10580 10578 10577 10577 10576 10575 10574 10573 10574 10577 10579 10582 10584 10586 10588 10589 10590 10591 10592 10593 10594 10594 10594 10594 10594 10594 10594 10594 10594 10594 10594 10594 10594 10594 10593 10593 10593 10593 10593 10593 10593
10575 10574 10572 10571 10570 10571 10570 10567 10565 10568 10570 10572 10575 10577 10580 10582 10583 10584 10586 10587 10588 10588 10589 10588 10588 10588 10588 10588 10588 10589 10589 10589 10589 10589 10589 10589 10589 10588 10588 10588 10588 10588
10568 10566 10564 10565 10565 10566 10566 10562 10561 10563 10564 10565 10566 10568 10573 10576 10577 10579 10581 10582 10583 10582 10582 10582 10582 10582 10582 10582 10583 10583 10583 10584 10584 10584 10584 10584 10584 10584 10583 10583 10583 10583
10561 10558 10558 10560 10560 10560 10560 10559 10559 10559 10559 10559 10558 10559 10562 10565 10567 10570 10572 10575 10576 10575 10575 10575 10575 10575 10575 10576 10576 10576 10577 10577 10578 10578 10578 10578 10578 10578 10578 10577 10577 10577
10556 10554 10555 10557 10556 10556 10555 10554 10554 10554 10554 10553 10552 10551 10552 10554 10555 10557 10559 10562 10564 10565 10566 10566 10566 10567 10567 10568 10569 10569 10570 10571 10571 10572 10572 10572 10572 10572 10571 10571 10571 10571
10552 10552 10552 10552 10552 10552 10552 10549 10548 10549 10549 10548 10547 10546 10546 10546 10547 10547 10548 10550 10553 10555 10557 10558 10558 10559 10560 10561 10561 10562 10563 10564 10565 10565 10565 10565 10565 10564 10564 10564 10564 10564
10549 10549 10548 10548 10547 10547 10547 10546 10545 10543 10543 10542 10541 10541 10540 10540 10540 10540 10540 10541 10542 10544 10545 10546 10548 10549 10550 10552 10553 10554 10555 10556 10556 10557 10558 10558 10558 10557 10557 10557 10557 10556
10545 10545 10544 10543 10542 10541 10541 10541 10541 10540 10539 10538 10537 10536 10535 10534 10534 10534 10535 10535 10535 10535 10536 10536 10537 10537 10539 10540 10541 10542 10543 10544 10546 10547 10549 10550 10550 10550 10550 10550 10549 10549
10539 10539 10537 10536 10536 10536 10535 10535 10535 10536 10536 10535 10534 10533 10532 10530 10529 10530 10530 10531 10532 10532 10532 10532 10532 10532 10532 10532 10533 10533 10533 10535 10536 10538 10541 10542 10542 10543 10542 10542 10541 10541
10533 10532 10530 10529 10529 10529 10529 10529 10529 10529 10529 10529 10529 10528 10527 10526 10525 10525 10525 10526 10528 10528 10528 10527 10528 10527 10527 10527 10527 10527 10527 10528 10530 10532 10534 10535 10536 10535 10535 10534 10534 10533
10525 10525 10523 10522 10522 10523 10523 10522 10522 10522 10522 10522 10522 10521 10520 10520 10520 10519 10518 10519 10521 10522 10521 10521 10521 10521 10521 10521 10520 10520 10521 10522 10523 10526 10528 10530 10530 10529 10528 10528 10527 10527
10515 10516 10515 10515 10515 10516 10515 10514 10514 10515 10515 10514 10514 10513 10512 10512 10513 10512 10511 10511 10512 10514 10514 10514 10514 10514 10514 10513 10512 10513 10515 10516 10517 10520 10523 10524 10524 10522 10521 10521 10520 10520
10504 10505 10505 10506 10507 10508 10508 10507 10507 10506 10506 10505 10505 10504 10504 10504 10504 10504 10504 10503 10504 10506 10506 10507 10507 10506 10505 10505 10505 10505 10507 10509 10510 10513 10517 10519 10518 10516 10515 10514 10513 10513
10495 10495 10496 10497 10498 10498 10499 10501 10500 10497 10496 10496 10496 10496 10495 10494 10494 10494 10493 10493 10495 10497 10498 10500 10500 10497 10495 10497 10496 10495 10495 10498 10500 10502 10507 10511 10512 10511 10510 10508 10507 10507
10487 10486 10487 10488 10488 10488 10491 10494 10494 10491 10488 10486 10487 10487 10486 10485 10485 10484 10483 10484 10487 10489 10490 10491 10492 10490 10489 10489 10488 10485 10485 10486 10488 10490 10493 10499 10503 10504 10504 10503 10502 10502
10480 10479 10479 10479 10479 10480 10483 10485 10486 10486 10482 10479 10479 10479 10477 10476 10476 10475 10475 10476 10478 10480 10482 10484 10484 10483 10483 10482 10481 10479 10478 10478 10479 10480 10480 10483 10488 10492 10496 10496 10496 10496
10472 10472 10472 10472 10471 10472 10474 10477 10479 10479 10476 10473 10473 10472 10470 10470 10469 10467 10467 10469 10470 10471 10473 10475 10477 10477 10476 10476 10475 10474 10473 10472 10473 10473 10473 10473 10474 10477 10483 10487 10488 10488
10464 10464 10464 10464 10465 10464 10465 10467 10470 10470 10468 10468 10468 10466 10464 10463 10462 10461 10462 10462 10463 10464 10464 10466 10468 10470 10471 10470 10470 10469 10468 10467 10467 10466 10467 10467 10466 10466 10468 10473 10477 10479
10454 10455 10455 10456 10457 10457 10457 10458 10460 10461 10461 10462 10462 10459 10456 10456 10456 10456 10456 10456 10456 10458 10458 10459 10459 10461 10463 10463 10463 10463 10463 10463 10462 10462 10461 10461 10460 10459 10458 10459 10463 10466
10443 10444 10445 10447 10448 10449 10449 10449 10451 10451 10452 10454 10454 10451 10449 10448 10448 10448 10448 10448 10448 10449 10450 10452 10453 10454 10455 10456 10456 10456 10456 10456 10456 10456 10456 10455 10455 10455 10454 10452 10452 10453
10433 10433 10434 10436 10437 10439 10440 10441 10441 10441 10443 10446 10448 10445 10442 10441 10440 10439 10439 10439 10440 10441 10442 10444 10445 10445 10447 10449 10449 10449 10449 10448 10448 10448 10448 10448 10448 10448 10448 10448 10447 10446
10422 10423 10424 10425 10426 10428 10429 10430 10430 10432 10435 10439 10439 10437 10435 10433 10430 10429 10429 10430 10431 10433 10435 10435 10435 10436 10438 10440 10441 10441 10442 10442 10442 10442 10441 10441 10441 10440 10440 10441 10441 10440
10411 10413 10414 10415 10416 10417 10417 10418 10419 10422 10425 10429 10429 10427 10426 10423 10419 10417 10420 10424 10425 10425 10425 10426 10426 10427 10429 10430 10431 10433 10434 10434 10434 10434 10434 10433 10433 10433 10432 10432 10432 10432
10401 10402 10403 10404 10405 10406 10407 10407 10408 10410 10413 10416 10417 10417 10416 10413 10409 10407 10411 10418 10419 10415 10415 10418 10418 10418 10419 10421 10422 10424 10425 10425 10425 10425 10425 10425 10424 10424 10424 10423 10423 10422
10392 10392 10392 10394 10395 10396 10397 10397 10398 10399 10401 10404 10406 10406 10405 10404 10402 10399 10401 10406 10408 10405 10405 10408 10408 10408 10409 10411 10413 10415 10415 10416 10416 10416 10416 10416 10415 10415 10414 10414 10414 10414